TimeMST,TemperatureF,Dew PointF,Humidity,Sea Level PressureIn,VisibilityMPH,Wind Direction,Wind SpeedMPH,Gust SpeedMPH,PrecipitationIn,Events,Conditions,WindDirDegrees,DateUTC
12:53 AM,60.1,51.1,72,30.05,10.0,SE,10.4,-,N/A,,Overcast,140,2012-11-18 07:53:00
1:53 AM,60.1,51.1,72,30.04,10.0,Calm,Calm,-,N/A,,Partly Cloudy,0,2012-11-18 08:53:00
2:53 AM,60.1,52.0,75,30.02,10.0,Variable,6.9,-,N/A,,Clear,0,2012-11-18 09:53:00
3:53 AM,61.0,51.1,70,29.99,10.0,ENE,3.5,-,N/A,,Clear,60,2012-11-18 10:53:00
4:53 AM,57.0,51.1,81,30.01,10.0,SSW,8.1,-,N/A,,Partly Cloudy,200,2012-11-18 11:53:00
5:53 AM,55.9,52.0,87,30.03,10.0,South,12.7,-,N/A,,Partly Cloudy,170,2012-11-18 12:53:00
6:53 AM,55.9,51.1,84,30.05,10.0,SE,9.2,-,N/A,,Overcast,140,2012-11-18 13:53:00
7:53 AM,57.0,51.1,81,30.06,10.0,ESE,5.8,-,N/A,,Clear,120,2012-11-18 14:53:00
8:53 AM,61.0,51.1,70,30.08,10.0,SE,6.9,-,N/A,,Clear,140,2012-11-18 15:53:00
9:53 AM,66.0,50.0,56,30.07,10.0,SE,8.1,-,N/A,,Clear,130,2012-11-18 16:53:00
10:53 AM,69.1,48.0,47,30.06,10.0,SE,8.1,-,N/A,,Clear,140,2012-11-18 17:53:00
11:53 AM,72.0,46.9,41,30.04,10.0,SSE,4.6,-,N/A,,Clear,160,2012-11-18 18:53:00
12:53 PM,73.0,43.0,34,30.01,10.0,Calm,Calm,-,N/A,,Clear,0,2012-11-18 19:53:00
1:53 PM,73.9,44.1,34,30.00,10.0,Calm,Calm,-,N/A,,Clear,0,2012-11-18 20:53:00
2:53 PM,75.0,45.0,34,29.99,10.0,Calm,Calm,-,N/A,,Clear,0,2012-11-18 21:53:00
3:53 PM,75.9,43.0,31,29.99,10.0,Calm,Calm,-,N/A,,Clear,0,2012-11-18 22:53:00
4:53 PM,73.9,43.0,33,29.99,10.0,Calm,Calm,-,N/A,,Clear,0,2012-11-18 23:53:00
5:53 PM,71.1,43.0,36,30.01,10.0,West,4.6,-,N/A,,Scattered Clouds,260,2012-11-19 00:53:00
6:53 PM,66.2,42.8,43,30.12,10.0,WSW,5.8,-,N/A,,Scattered Clouds,240,2012-11-19 01:53:00
7:53 PM,64.9,43.0,45,30.06,10.0,West,4.6,-,N/A,,Clear,270,2012-11-19 02:53:00
8:53 PM,64.0,42.1,45,30.07,10.0,SSW,6.9,-,N/A,,Partly Cloudy,200,2012-11-19 03:53:00
9:53 PM,63.0,44.1,50,30.08,10.0,South,4.6,-,N/A,,Mostly Cloudy,180,2012-11-19 04:53:00
10:53 PM,60.1,44.1,55,30.09,10.0,South,4.6,-,N/A,,Clear,190,2012-11-19 05:53:00
11:53 PM,59.0,45.0,60,30.09,10.0,Calm,Calm,-,N/A,,Clear,0,2012-11-19 06:53:00